SCP
4 2 0 0 0 0 0 0 0 0 0 0 0 0 0 0 0 0 0 0 0 0 0 0 0 0 0 0 0 0 0 0
0 0 0 0 0 0 0 0 0 0 0 0 0 0 0 0 0 0 0 0 0 0 0 0 0 0 0 0 0 0 0 0
0 0 0 0 0 0 0 0 0 0 0 0 0 0 0 0 0 0 0 0 0 0 0 0 0 0 0 0 0 0 0 0
0 0 0 0 0 0 0 0 0 0 0 0 0 0 0 0 0 0 0 0 0 0 0 0 0 0 0 0 0 0 0 0
0 0 0 0 0 0 0 0 0 0 0 0 0 0 0 0 0 0 0 0 0 0 0 0 0 0 0 0 0 0 0 0
0 0 -0 -0 -0 0 0 0 0 0 0 0 0 0 0 0 0 0 0 0 0 0 0 0 0 0 0 0 0 0 0 -0
0 0 -0 0 -0 0 0 0 0 0 0 0 0 0 0 0 0 0 0 0 0 0 0 0 0 0 0 0 0 0 0 0
0 0 0 0 0 0 0 0 0 0 0 0 0 0 0 0 0 0 0 0 0 0 0 0 0 0 0 0 0 0 0 0
0 0 0 0 0 0 0 0 0 0 0 0 0 0 0 0 0 0 0 0 0 0 0 0 0 0 0 0 0 0 0 0
0 0 0 0 0 0 0 0 0 0 0 0 0 0 0 0 0 0 0 0 0 0 0 0 0 0 0 0 0 0 0 0
0 0 0 0 0 0 0 0 0 0 0 0 0 0 0 0 0 0 0 0 0 0 0 0 0 0 0 0 0 0 0 0
0 0 0 0 0 0 0 0 0 0 0 0 0 0 0 0 0 0 0 0 0 0 0 0 0 0 0 0 0 0 0 0
0 0 0 0 0 0 0 0 0 0 0 0 0 0 0 0 0 0 0 0 0 0 0 0 0 0 0 0 0 0 0 0
0 0 0 0 0 0 0 0 0 0 0 0 0 0 0 0 0 0 0 0 0 0 0 0 0 0 0 0 0 0 0 0
0 0 0 0 0 0 0 0 0 0 0 0 0 0 0 0 0 0 0 0 0 0 0 0 0 0 0 0 0 0 0 0
0 -0 0 0 0 0 0 0 0 0 0 0 0 0 0 0 0 0 0 0 0 0 0 0 0 0 0 0 0 0 0 0
0 0 0 0 0 0 0 0 0 0 0 0 0 0 0 0 0 0 0 0 0 0 0 0 0 0 0 0 0 0 0 0
0 0 0 0 0 0 0 0 0 0 0 0 0 0 0 0 0 0 0 0 0 0 0 0 0 0 0 0 0 0 0 0
0 0 0 0 0 0 0 0 0 0 0 0 0 0 0 0 0 0 0 0 0 0 0 0 0 0 0 -0 -0 0 -0 0
0 0 0 -0 -0 0 0 0 0 0 0 0 0 0 0 0 0 0 0 0 0 0 0 0 0 0 0 -0 -0 -0 -0 -0
Wind_Speed_500mb
79 80 86 88 83 78 69 58 55 55 44 44 48 39 32 26 16 17 15 10 6 2 8 14 20 27 34 33 29 30 31 33
82 87 90 91 85 79 69 63 61 56 45 40 44 40 34 26 21 17 12 5 5 10 16 22 28 30 27 24 25 24 26 29
84 96 93 93 88 84 76 69 61 52 44 45 41 37 32 27 20 12 6 6 11 16 20 23 25 20 20 25 24 26 29 32
87 93 96 93 90 88 80 72 61 52 50 42 35 30 26 20 14 9 7 9 12 15 18 21 19 23 27 26 27 29 33 38
87 89 96 96 89 84 76 67 60 53 47 40 34 26 21 17 13 11 13 13 13 16 20 24 27 25 25 27 29 31 38 46
87 97 96 89 84 75 70 66 60 53 45 38 29 22 19 17 15 15 17 17 18 22 28 26 21 21 21 24 27 36 44 49
95 96 92 85 76 72 69 62 53 46 41 34 28 21 20 19 18 19 20 21 23 29 27 22 15 15 15 16 25 36 42 47
95 87 80 75 70 65 63 57 48 43 37 34 29 25 23 22 21 21 22 24 28 26 21 14 15 16 12 15 25 34 39 42
80 78 77 70 60 55 56 50 46 41 35 32 29 26 23 23 22 23 23 20 20 16 15 14 12 13 14 15 21 29 35 39
79 76 70 62 53 49 55 51 45 37 32 29 28 26 25 25 21 21 18 16 13 13 12 11 11 12 15 19 24 25 26 33
74 73 65 54 47 43 49 46 37 35 32 33 31 29 28 26 22 22 18 16 13 12 12 9 8 11 15 18 19 19 23 29
71 68 62 56 45 44 46 44 37 34 35 35 33 29 29 30 28 27 23 20 21 19 15 13 13 12 14 17 19 14 19 25
61 60 58 54 48 47 43 38 33 35 35 35 33 32 30 32 30 29 27 27 26 27 27 25 23 23 29 35 33 25 25 27
56 55 53 50 45 44 42 35 27 26 35 37 36 35 34 29 25 28 26 27 24 25 26 32 38 35 31 29 31 28 26 26
53 52 51 51 50 47 40 33 30 32 37 38 38 36 35 32 30 27 27 29 26 26 29 28 27 28 25 26 28 31 27 27
55 52 53 53 49 46 38 32 32 38 40 37 34 34 33 30 28 28 24 21 23 27 29 30 28 29 27 25 23 17 21 38
53 55 55 49 46 44 36 33 34 35 33 33 34 34 31 29 27 23 21 18 19 22 21 25 29 29 29 33 33 39 45 48
53 53 48 44 41 35 30 29 33 34 35 32 29 26 24 22 23 24 24 22 19 19 23 25 26 23 34 41 45 44 45 48
45 45 42 40 40 30 26 19 18 22 23 23 19 21 22 20 20 21 23 25 26 23 24 23 26 31 38 41 43 47 47 47
39 40 37 34 31 27 24 19 16 20 21 19 16 15 15 15 18 18 19 21 24 23 19 17 21 27 33 38 41 44 45 45
Wind_Direction_500mb
138 147 145 151 156 151 153 153 150 143 152 153 145 148 153 144 150 151 154 142 127 6 322 323 324 331 333 337 343 351 353 350
135 134 140 146 150 148 150 149 146 147 157 147 140 140 140 142 145 143 133 103 348 334 331 330 333 341 353 6 12 8 3 354
127 129 134 140 140 141 144 144 146 148 152 144 136 135 136 137 135 127 89 9 341 335 336 338 348 11 35 36 30 23 12 0
119 124 130 136 137 137 140 139 141 149 144 138 134 137 135 129 114 86 40 14 3 358 359 13 37 67 55 48 36 26 11 13
115 120 130 136 137 138 136 139 141 142 137 135 138 134 127 109 88 65 52 45 36 30 41 59 70 68 57 46 35 31 22 14
118 126 131 132 136 136 137 137 138 137 134 132 128 124 112 99 85 76 70 63 60 66 68 70 70 60 65 53 38 26 21 15
122 129 129 130 133 136 136 134 134 133 129 125 119 111 103 99 93 83 80 68 79 78 71 69 65 73 73 49 31 26 22 20
126 126 128 130 131 136 134 129 131 129 125 116 111 109 107 103 91 90 91 88 86 86 77 72 67 58 49 34 21 21 20 23
126 128 128 128 135 137 129 128 124 120 118 116 115 111 106 98 92 95 97 98 98 108 80 66 50 42 20 4 358 9 15 26
132 130 127 131 136 139 128 123 117 117 118 117 112 106 101 96 92 94 96 93 95 97 78 78 38 28 17 2 358 2 10 18
131 129 127 129 132 134 128 117 122 121 119 112 106 103 99 95 89 85 86 85 88 81 83 69 42 40 31 9 360 12 15 13
130 129 128 126 129 126 119 122 123 123 117 107 101 99 98 97 91 87 83 81 77 73 59 49 37 22 17 24 29 27 23 12
131 128 127 125 128 124 123 120 123 116 108 103 101 101 105 103 95 88 83 78 68 61 56 51 50 37 30 20 18 13 11 4
129 128 127 128 130 125 119 113 105 106 110 105 100 101 102 99 94 97 90 83 70 61 54 50 47 49 45 31 20 11 7 5
124 125 125 126 124 119 114 106 100 103 107 103 98 94 91 92 91 88 85 80 76 72 61 52 46 43 38 33 25 24 18 14
111 118 126 125 121 114 109 107 103 105 103 102 103 100 96 96 93 88 86 86 71 66 57 51 44 41 38 33 28 1 23 31
115 114 121 124 118 110 110 113 105 105 109 113 111 109 105 97 90 85 80 78 71 67 60 48 38 35 39 44 40 42 42 41
115 115 117 119 117 114 120 115 113 111 105 105 107 107 103 92 85 77 75 82 81 70 62 49 27 24 41 41 44 41 39 38
118 113 111 109 106 101 102 133 120 119 118 111 99 91 87 84 82 75 67 79 82 69 61 46 23 30 39 39 37 37 35 31
122 118 123 118 112 103 97 117 125 121 123 115 107 97 100 103 95 86 81 72 72 73 64 45 23 26 30 30 30 28 26 27
Wind_Speed_850mb
79 80 86 88 83 78 69 58 55 55 44 44 48 39 32 26 16 17 15 10 6 2 8 14 20 27 34 33 29 30 31 33
82 87 90 91 85 79 69 63 61 56 45 40 44 40 34 26 21 17 12 5 5 10 16 22 28 30 27 24 25 24 26 29
84 96 93 93 88 84 76 69 61 52 44 45 41 37 32 27 20 12 6 6 11 16 20 23 25 20 20 25 24 26 29 32
87 93 96 93 90 88 80 72 61 52 50 42 35 30 26 20 14 9 7 9 12 15 18 21 19 23 27 26 27 29 33 38
87 89 96 96 89 84 76 67 60 53 47 40 34 26 21 17 13 11 13 13 13 16 20 24 27 25 25 27 29 31 38 46
87 97 96 89 84 75 70 66 60 53 45 38 29 22 19 17 15 15 17 17 18 22 28 26 21 21 21 24 27 36 44 49
95 96 92 85 76 72 69 62 53 46 41 34 28 21 20 19 18 19 20 21 23 29 27 22 15 15 15 16 25 36 42 47
95 87 80 75 70 65 63 57 48 43 37 34 29 25 23 22 21 21 22 24 28 26 21 14 15 16 12 15 25 34 39 42
80 78 77 70 60 55 56 50 46 41 35 32 29 26 23 23 22 23 23 20 20 16 15 14 12 13 14 15 21 29 35 39
79 76 70 62 53 49 55 51 45 37 32 29 28 26 25 25 21 21 18 16 13 13 12 11 11 12 15 19 24 25 26 33
74 73 65 54 47 43 49 46 37 35 32 33 31 29 28 26 22 22 18 16 13 12 12 9 8 11 15 18 19 19 23 29
71 68 62 56 45 44 46 44 37 34 35 35 33 29 29 30 28 27 23 20 21 19 15 13 13 12 14 17 19 14 19 25
61 60 58 54 48 47 43 38 33 35 35 35 33 32 30 32 30 29 27 27 26 27 27 25 23 23 29 35 33 25 25 27
56 55 53 50 45 44 42 35 27 26 35 37 36 35 34 29 25 28 26 27 24 25 26 32 38 35 31 29 31 28 26 26
53 52 51 51 50 47 40 33 30 32 37 38 38 36 35 32 30 27 27 29 26 26 29 28 27 28 25 26 28 31 27 27
55 52 53 53 49 46 38 32 32 38 40 37 34 34 33 30 28 28 24 21 23 27 29 30 28 29 27 25 23 17 21 38
53 55 55 49 46 44 36 33 34 35 33 33 34 34 31 29 27 23 21 18 19 22 21 25 29 29 29 33 33 39 45 48
53 53 48 44 41 35 30 29 33 34 35 32 29 26 24 22 23 24 24 22 19 19 23 25 26 23 34 41 45 44 45 48
45 45 42 40 40 30 26 19 18 22 23 23 19 21 22 20 20 21 23 25 26 23 24 23 26 31 38 41 43 47 47 47
39 40 37 34 31 27 24 19 16 20 21 19 16 15 15 15 18 18 19 21 24 23 19 17 21 27 33 38 41 44 45 45
Wind_Direction_850mb
138 147 145 151 156 151 153 153 150 143 152 153 145 148 153 144 150 151 154 142 127 6 322 323 324 331 333 337 343 351 353 350
135 134 140 146 150 148 150 149 146 147 157 147 140 140 140 142 145 143 133 103 348 334 331 330 333 341 353 6 12 8 3 354
127 129 134 140 140 141 144 144 146 148 152 144 136 135 136 137 135 127 89 9 341 335 336 338 348 11 35 36 30 23 12 0
119 124 130 136 137 137 140 139 141 149 144 138 134 137 135 129 114 86 40 14 3 358 359 13 37 67 55 48 36 26 11 13
115 120 130 136 137 138 136 139 141 142 137 135 138 134 127 109 88 65 52 45 36 30 41 59 70 68 57 46 35 31 22 14
118 126 131 132 136 136 137 137 138 137 134 132 128 124 112 99 85 76 70 63 60 66 68 70 70 60 65 53 38 26 21 15
122 129 129 130 133 136 136 134 134 133 129 125 119 111 103 99 93 83 80 68 79 78 71 69 65 73 73 49 31 26 22 20
126 126 128 130 131 136 134 129 131 129 125 116 111 109 107 103 91 90 91 88 86 86 77 72 67 58 49 34 21 21 20 23
126 128 128 128 135 137 129 128 124 120 118 116 115 111 106 98 92 95 97 98 98 108 80 66 50 42 20 4 358 9 15 26
132 130 127 131 136 139 128 123 117 117 118 117 112 106 101 96 92 94 96 93 95 97 78 78 38 28 17 2 358 2 10 18
131 129 127 129 132 134 128 117 122 121 119 112 106 103 99 95 89 85 86 85 88 81 83 69 42 40 31 9 360 12 15 13
130 129 128 126 129 126 119 122 123 123 117 107 101 99 98 97 91 87 83 81 77 73 59 49 37 22 17 24 29 27 23 12
131 128 127 125 128 124 123 120 123 116 108 103 101 101 105 103 95 88 83 78 68 61 56 51 50 37 30 20 18 13 11 4
129 128 127 128 130 125 119 113 105 106 110 105 100 101 102 99 94 97 90 83 70 61 54 50 47 49 45 31 20 11 7 5
124 125 125 126 124 119 114 106 100 103 107 103 98 94 91 92 91 88 85 80 76 72 61 52 46 43 38 33 25 24 18 14
111 118 126 125 121 114 109 107 103 105 103 102 103 100 96 96 93 88 86 86 71 66 57 51 44 41 38 33 28 1 23 31
115 114 121 124 118 110 110 113 105 105 109 113 111 109 105 97 90 85 80 78 71 67 60 48 38 35 39 44 40 42 42 41
115 115 117 119 117 114 120 115 113 111 105 105 107 107 103 92 85 77 75 82 81 70 62 49 27 24 41 41 44 41 39 38
118 113 111 109 106 101 102 133 120 119 118 111 99 91 87 84 82 75 67 79 82 69 61 46 23 30 39 39 37 37 35 31
122 118 123 118 112 103 97 117 125 121 123 115 107 97 100 103 95 86 81 72 72 73 64 45 23 26 30 30 30 28 26 27